Flagstaff, AZ

3:46 PM MST on February 19, 2018 (GMT -0700)
Flagstaff Pulliam

Weather History for KFLG - August, 2012

Change the Weather History Date:

Thursday, August 9, 2012

  Actual Average Record
Temperature  
Mean Temperature 69 °F 65 °F  
Max Temperature 84 °F 79 °F 89 °F (1980)
Min Temperature 53 °F 51 °F 35 °F (2009)
Degree Days  
Heating Degree Days 0 1  
Month to date heating degree days 2 9  
Since 1 June heating degree days 90  
Since 1 July heating degree days 18 41  
Cooling Degree Days 4 1  
Month to date cooling degree days 14 16  
Year to date cooling degree days 120 97  
Since 1 June cooling degree days 120  
Growing Degree Days 18 (Base 50)    
Moisture  
Dew Point 49 °F    
Average Humidity 56    
Maximum Humidity 83    
Minimum Humidity 28    
Precipitation  
Precipitation 0.00 in 0.10 in 1.40 in (1977)
Month to date precipitation 0.14 0.97  
Year to date precipitation 8.05 12.05  
Snow  
Snow 0.00 in 0.00 in 0.00 in (2016)
Month to date snowfall 0.0 0.0  
Since 1 July snowfall 0.0 0.0  
Snow Depth -    
Sea Level Pressure  
Sea Level Pressure 30.08 in    
Wind  
Wind Speed 3 mph (SE)    
Max Wind Speed 12 mph    
Max Gust Speed 15 mph    
Visibility 10 miles    
Events Thunderstorm    
T = Trace of Precipitation, MM = Missing Value Source: NWS Daily Summary

Daily Weather History Graph

Daily Weather History Graph

Search for Another Location

Airport or City:

Trip Planner

Search our weather history database for the weather conditions in past years. The results will help you decide how hot, cold, wet, or windy it might be!

Date:

Astronomy

Aug. 09, 2012 Rise Set
Actual Time 5:42 AM MST 7:21 PM MST
Civil Twilight 5:15 AM MST 7:48 PM MST
Nautical Twilight 4:42 AM MST 8:21 PM MST
Astronomical Twilight 4:07 AM MST 8:55 PM MST
Moon 11:36 PM MST (8/9) 1:06 PM MST (8/9)
Length of Visible Light 14h 33m
Length of Day
13h 38m
Waning Gibbous, 50% of the Moon is Illuminated
Aug 9
Waning Gibbous
Aug 17
New
Aug 24
First Quarter
Aug 31
Full
Sep 8
Last Quarter

Hourly Weather History & Observations

Time (MST) Temp. Dew Point Humidity Pressure Visibility Wind Dir Wind Speed Gust Speed Precip Events Conditions
12:57 AM 55.9 °F 48.9 °F 77% 30.09 in 10.0 mi Calm Calm - N/A   Clear
1:57 AM 57.0 °F 48.9 °F 74% 30.08 in 10.0 mi Calm Calm - N/A   Clear
2:57 AM 54.0 °F 48.0 °F 80% 30.10 in 10.0 mi Calm Calm - N/A   Clear
3:57 AM 55.0 °F 48.0 °F 77% 30.06 in 10.0 mi Calm Calm - N/A   Clear
4:57 AM 54.0 °F 48.0 °F 80% 30.07 in 10.0 mi Calm Calm - N/A   Clear
6:57 AM 59.0 °F 51.1 °F 75% 30.09 in 10.0 mi Calm Calm - N/A   Clear
7:57 AM 68.0 °F 53.1 °F 59% 30.10 in 10.0 mi Calm Calm - N/A   Clear
8:57 AM 77.0 °F 48.9 °F 37% 30.09 in 10.0 mi East 4.6 mph - N/A   Clear
9:57 AM 79.0 °F 46.9 °F 32% 30.11 in 10.0 mi SSE 5.8 mph - N/A   Clear
10:57 AM 81.0 °F 48.9 °F 33% 30.11 in 10.0 mi SSW 15.0 mph 20.7 mph N/A   Scattered Clouds
11:57 AM 82.0 °F 48.0 °F 30% 30.08 in 10.0 mi SW 11.5 mph 20.7 mph N/A   Clear
12:19 PM 80.6 °F 48.2 °F 32% 30.41 in 10.0 mi SSW 16.1 mph 25.3 mph N/A Thunderstorm Thunderstorm
12:57 PM 82.4 °F 46.4 °F 28% 30.08 in 10.0 mi Calm Calm - N/A Thunderstorm Thunderstorm
1:57 PM 73.9 °F 50.0 °F 43% 30.09 in 10.0 mi North 11.5 mph - N/A Thunderstorm Thunderstorm
2:04 PM 73.4 °F 50.0 °F 44% 30.39 in 10.0 mi Variable 5.8 mph - N/A   Clear
2:57 PM 82.9 °F 50.0 °F 32% 30.03 in 10.0 mi NE 11.5 mph - N/A   Unknown
3:57 PM 81.0 °F 48.9 °F 33% 30.02 in 10.0 mi East 4.6 mph - N/A   Scattered Clouds
4:57 PM 82.0 °F 46.0 °F 28% 30.01 in 10.0 mi Variable 5.8 mph - N/A   Clear
5:57 PM 78.1 °F 46.9 °F 33% 30.02 in 10.0 mi Calm Calm - N/A   Clear
6:57 PM 73.0 °F 48.9 °F 42% 30.02 in 10.0 mi Calm Calm - N/A   Clear
7:57 PM 70.0 °F 50.0 °F 49% 30.01 in 10.0 mi Variable 3.5 mph - N/A   Partly Cloudy
8:57 PM 68.0 °F 48.0 °F 49% 29.99 in 10.0 mi Calm Calm - N/A   Clear
9:57 PM 64.0 °F 46.9 °F 54% 29.99 in 10.0 mi Calm Calm - N/A   Clear
10:57 PM 59.0 °F 48.0 °F 67% 30.00 in 10.0 mi Calm Calm - N/A   Clear
11:57 PM 57.0 °F 48.0 °F 72% 30.01 in 10.0 mi Calm Calm - N/A   Clear